Theta_e
313 312 311 311 311 312 311 311 312 312 311 313 312 312 312 311 311 310 310 310 310 310 311 313 316 321 326 329 332 334 335 335 332 332 331 332 332 331 330 329 329 328 328 326
313 311 312 312 311 311 312 313 312 311 311 312 312 312 311 311 311 310 310 310 310 311 311 312 313 314 318 325 329 332 334 336 334 332 331 331 331 331 330 330 329 329 328 327
312 311 312 312 312 311 311 311 311 312 311 311 310 310 310 310 311 310 311 310 310 310 310 310 312 313 312 313 318 327 330 332 335 334 332 331 331 331 330 330 329 329 329 328
312 311 312 312 312 311 311 310 310 311 310 309 310 308 310 311 310 310 310 309 309 310 313 309 311 312 311 311 312 312 317 327 330 335 332 331 331 331 330 329 329 329 329 329
312 311 312 312 311 310 311 309 310 311 311 310 310 308 306 311 311 310 308 308 308 311 311 311 312 312 312 312 311 310 310 311 319 329 333 331 330 329 328 328 329 329 328 329
310 309 311 312 309 310 310 310 310 310 309 310 309 308 309 309 309 310 311 310 311 311 310 309 311 311 313 315 316 314 311 309 311 317 332 332 331 329 329 329 329 328 328 327
310 310 308 310 309 310 311 310 311 310 311 310 308 309 308 310 309 309 310 310 308 310 309 309 310 311 312 314 318 315 309 308 309 313 319 331 330 327 327 328 330 329 327 327
310 311 309 308 310 310 310 309 313 312 315 311 307 307 308 309 309 306 308 308 308 309 309 309 310 310 310 312 316 316 314 314 316 318 321 323 329 328 325 328 329 329 328 326
309 310 309 308 310 309 310 309 310 309 303 310 309 308 309 309 308 309 305 310 309 309 308 308 309 309 309 309 311 316 315 316 318 320 323 324 325 325 327 327 327 328 328 327
310 312 310 309 309 310 309 308 308 309 309 311 307 309 308 311 308 307 308 307 309 309 308 307 307 307 307 307 308 311 314 314 316 318 319 321 321 321 324 325 325 325 325 325
309 312 311 309 309 309 308 309 309 308 311 312 310 307 309 310 310 307 306 308 309 308 307 306 306 306 305 306 307 308 309 311 311 313 314 316 316 317 318 319 319 319 319 319
310 312 311 310 309 308 307 308 308 309 309 307 309 309 308 307 309 311 308 308 307 307 306 305 304 304 304 304 305 305 305 305 306 307 307 306 306 307 308 308 308 308 309 308
309 311 309 311 311 310 310 310 309 308 307 309 308 308 308 308 309 311 309 308 307 306 305 304 303 303 303 302 302 301 301 301 301 301 301 301 301 301 300 300 301 302 302 302
310 313 309 309 309 310 310 309 309 309 311 309 309 309 309 309 310 311 310 307 306 305 304 303 302 302 302 302 301 300 300 300 300 299 299 298 298 298 297 297 297 298 298 298
310 308 311 308 309 309 311 310 310 310 309 310 309 308 309 307 308 308 307 306 306 306 304 303 302 301 301 301 300 298 298 297 297 296 295 293 293 293 294 293 293 293 293 292
310 310 312 308 311 311 311 310 310 309 309 309 308 308 309 308 307 307 308 307 307 306 305 304 302 301 300 299 298 295 294 294 294 292 290 289 289 289 289 289 289 289 289 289
310 307 306 305 310 310 308 310 310 309 309 309 310 310 309 308 306 308 308 307 307 306 305 303 301 300 298 297 295 293 292 291 289 288 287 287 287 288 288 288 288 288 288 287
308 307 306 306 308 314 310 309 309 309 310 309 309 309 309 309 307 306 307 308 307 305 304 302 301 298 296 295 292 291 290 287 286 286 286 286 286 286 286 286 286 286 286 286
310 309 311 313 314 310 311 310 311 310 311 309 309 309 309 308 306 307 307 307 307 305 304 302 299 294 293 291 290 288 287 286 285 284 283 283 284 284 284 285 285 285 285 285
309 311 306 314 311 312 310 308 305 309 312 304 304 304 305 307 307 309 307 306 306 304 302 298 293 291 290 290 287 286 284 283 282 282 282 282 283 283 284 284 284 283 283 284
309 311 314 314 315 311 307 304 307 310 310 298 303 304 303 304 305 303 306 303 301 299 294 291 289 287 287 286 285 283 282 280 280 280 281 281 282 282 282 282 283 284 284 284
308 310 311 311 313 312 301 305 309 304 301 298 302 302 301 300 299 296 294 292 291 290 288 285 284 283 284 284 283 280 279 278 279 280 280 281 281 283 284 284 283 281 281 281
309 306 308 308 308 306 301 308 305 302 302 301 301 299 299 299 298 293 291 288 287 284 283 281 281 280 281 282 282 279 277 278 279 280 282 284 283 282 282 281 280 280 279 278
302 304 302 303 304 306 306 304 302 301 301 299 298 298 299 297 293 290 288 286 284 282 280 279 278 277 278 279 279 278 277 279 283 284 281 280 279 279 278 278 277 277 276 275
300 301 300 301 304 303 302 300 300 299 297 295 295 296 296 293 292 289 286 283 283 281 280 279 278 277 276 277 278 282 281 282 281 279 278 277 277 276 275 275 275 274 274 275
297 300 302 300 301 301 300 296 294 295 297 294 294 294 294 292 290 287 285 283 282 281 280 279 278 276 275 278 278 278 278 278 278 277 275 275 275 274 274 273 274 274 274 274
Wind_Speed
7 5 7 9 9 3 1 8 6 5 2 1 6 9 10 8 7 9 8 8 8 9 12 20 23 22 21 23 26 27 30 29 26 28 28 27 29 29 29 27 25 22 21 22
4 7 9 9 8 5 4 4 2 4 5 3 6 8 10 9 7 9 9 9 10 7 9 12 17 19 22 22 24 25 27 30 33 31 29 27 27 27 29 29 27 26 24 23
7 7 10 8 5 7 5 6 4 5 4 2 2 6 9 10 13 10 8 9 8 10 9 9 15 17 16 19 22 25 27 28 31 32 30 25 23 24 27 30 32 32 30 26
6 3 10 7 6 5 6 5 7 8 5 2 3 4 4 5 7 7 8 8 8 7 3 6 5 6 8 10 12 21 24 26 28 31 33 32 26 23 23 29 31 31 31 34
3 7 12 8 8 10 2 7 7 5 3 3 3 1 6 4 4 7 11 10 8 4 7 6 6 2 2 8 14 16 20 24 27 23 35 35 29 26 24 25 28 28 29 30
3 3 4 4 5 7 8 8 8 4 3 2 7 6 5 6 8 4 1 5 7 7 7 7 4 0 1 4 8 12 17 22 23 24 25 31 27 25 24 21 25 26 26 25
5 2 3 3 8 4 5 6 2 1 0 5 4 4 10 4 4 5 6 7 8 7 7 5 5 4 2 2 3 3 7 12 16 19 19 21 26 24 26 26 22 22 22 23
7 4 8 5 5 8 9 8 6 7 5 3 5 7 7 12 2 2 3 7 8 8 6 5 5 4 4 4 4 3 2 4 6 9 11 16 17 21 22 23 20 19 20 20
9 3 6 7 0 9 5 5 1 7 3 4 5 7 8 6 6 6 7 4 6 7 7 6 5 6 7 5 6 5 3 5 6 6 8 9 14 10 14 14 15 12 14 13
1 5 2 2 2 2 3 4 3 1 5 4 6 5 7 3 9 8 8 8 7 7 7 6 6 6 6 6 6 6 6 5 4 7 7 9 11 11 9 10 11 10 10 9
2 5 2 4 7 8 2 4 5 5 4 5 1 6 4 5 7 11 9 9 9 8 7 6 7 7 6 6 7 9 9 9 10 9 9 9 7 6 6 7 6 5 5 5
5 5 4 8 1 4 9 7 8 5 4 2 3 9 5 7 4 3 10 10 9 9 8 7 9 8 8 8 9 10 10 12 11 11 13 15 13 11 10 9 8 6 5 4
8 4 3 2 2 3 3 2 4 5 3 6 5 13 4 6 5 4 7 7 7 7 7 7 9 10 10 10 11 12 13 14 15 16 18 17 16 15 14 13 12 10 9 9
8 4 8 13 3 9 6 7 7 6 4 21 10 24 2 4 6 5 6 8 8 8 7 7 6 11 13 13 14 13 14 14 15 17 20 21 18 18 17 16 15 15 13 13
6 6 4 5 4 3 4 7 13 18 21 7 22 17 25 7 9 9 8 8 9 9 10 10 9 9 15 16 17 17 16 15 17 20 21 20 19 18 17 16 15 14 12 12
1 1 1 4 3 3 2 10 13 16 18 13 19 18 30 2 5 8 10 12 12 13 14 11 8 13 16 19 19 18 18 16 17 20 21 18 17 16 16 14 13 12 12 12
4 5 3 2 7 5 7 21 10 9 12 10 16 27 22 14 7 9 11 13 16 16 14 12 12 16 18 21 22 20 19 18 19 21 19 17 15 16 15 14 13 13 13 12
4 4 3 3 5 4 7 8 11 17 17 17 18 22 24 19 4 8 12 17 15 10 12 13 19 23 26 23 23 22 21 20 19 19 18 15 14 15 14 13 13 12 12 13
4 4 3 3 5 8 16 4 7 8 16 11 19 23 23 17 6 17 7 10 16 18 18 20 24 27 29 27 24 25 22 20 19 17 15 14 13 13 12 13 13 13 14 16
6 3 3 4 4 8 3 2 4 5 11 3 8 8 9 9 6 17 6 8 7 13 21 22 27 27 30 27 28 26 22 19 18 14 13 12 11 12 12 13 12 14 16 17
5 4 12 9 5 8 4 4 1 6 4 3 1 3 6 3 5 14 9 5 10 19 25 27 27 25 26 27 27 25 22 17 14 13 11 11 11 11 13 13 14 15 15 15
10 9 6 6 4 12 6 1 9 4 4 5 4 3 1 3 7 7 8 8 11 19 22 21 25 25 26 26 26 23 18 15 13 13 12 12 12 12 12 11 11 12 15 17
5 6 6 9 7 2 5 1 2 4 5 5 5 5 6 6 3 5 5 7 9 14 16 19 26 25 22 20 22 23 16 13 12 11 11 8 6 7 8 9 10 14 15 15
2 2 3 3 5 4 3 2 4 6 4 1 2 4 4 6 9 9 6 6 8 11 16 21 23 21 21 19 17 18 15 13 10 7 6 6 6 7 8 8 9 11 12 12
3 5 5 4 4 4 1 1 3 3 2 3 3 3 5 7 8 11 10 8 11 13 15 18 20 20 20 18 18 15 13 11 11 9 7 5 4 6 6 7 8 8 8 10
5 6 5 4 1 3 2 2 3 3 4 6 6 5 6 7 9 9 11 21 21 18 18 16 16 20 20 17 15 13 11 10 11 10 6 5 4 5 6 7 7 4 6 9
Wind_Direction
197 176 189 189 198 238 113 161 170 125 40 165 238 265 256 243 209 221 235 244 240 212 211 206 206 207 208 207 201 199 199 208 202 209 209 210 213 217 221 223 225 218 218 221
116 217 191 193 208 129 139 143 169 68 84 105 306 266 260 256 247 223 212 231 230 236 194 193 185 192 206 210 211 208 206 205 206 204 214 215 217 219 223 225 218 217 217 217
165 191 208 175 140 160 189 173 151 116 162 193 308 274 239 246 231 249 230 224 241 209 207 172 169 192 204 213 218 216 217 214 213 210 211 217 220 223 227 226 230 226 223 217
231 180 153 147 167 162 193 140 112 135 145 193 189 271 312 251 218 221 248 242 236 249 152 113 109 150 195 216 227 232 226 221 221 214 205 205 209 213 219 226 231 232 232 230
174 163 150 173 191 176 206 128 130 123 118 78 176 24 261 8 234 236 238 223 224 144 84 96 78 76 265 247 240 235 229 228 225 224 211 207 210 228 232 233 231 232 237 237
63 318 143 135 42 145 137 96 86 109 140 264 190 170 244 201 210 219 102 127 131 116 98 88 84 116 236 270 268 255 240 237 227 225 216 211 212 226 227 227 226 226 233 237
116 152 58 125 80 85 159 149 115 120 121 221 325 173 234 266 248 210 196 175 153 138 138 151 147 130 77 2 321 271 246 235 229 228 225 217 228 231 235 230 220 219 224 228
160 187 158 196 179 175 201 179 159 177 183 204 342 233 255 220 109 70 86 171 143 144 127 143 133 122 98 55 40 40 123 151 195 212 219 218 219 226 236 235 235 234 233 239
172 211 89 131 171 135 215 239 106 101 2 72 209 274 300 195 235 216 207 174 167 164 159 161 148 114 97 83 59 63 99 145 147 154 187 203 212 207 200 214 219 222 229 239
108 106 40 38 340 344 129 157 65 309 135 218 247 235 228 162 238 229 216 201 185 154 155 150 142 121 106 97 89 95 106 100 125 167 178 195 208 221 205 197 202 207 209 212
234 113 109 131 221 167 171 200 209 155 176 178 246 250 193 191 220 208 199 173 167 161 164 157 126 116 116 115 110 102 104 113 105 111 117 135 156 173 164 161 164 165 175 181
175 113 155 200 206 231 223 207 179 151 252 264 136 260 151 129 114 146 173 176 166 158 159 142 140 145 134 120 113 108 110 110 114 118 117 109 111 116 115 111 113 119 116 116
169 199 91 154 223 105 218 230 243 276 46 206 155 258 202 73 63 42 142 135 138 138 132 140 149 159 145 129 117 113 112 107 110 115 117 111 105 104 97 95 97 100 96 91
149 180 195 204 136 151 189 186 214 200 182 233 229 258 219 161 168 167 157 155 146 157 162 166 176 160 147 141 130 122 116 117 121 119 111 105 102 100 97 92 88 85 79 76
153 192 205 254 336 83 167 180 201 215 229 191 244 249 263 233 206 198 183 156 166 186 186 187 178 158 153 140 133 128 120 121 126 117 108 101 102 100 96 89 80 75 68 59
136 186 142 40 91 313 296 235 213 223 238 243 260 268 262 205 279 167 179 182 190 200 199 184 158 155 161 155 144 137 128 130 133 120 107 105 101 97 90 86 77 70 58 49
104 130 86 227 145 89 308 243 192 226 236 221 238 247 271 272 242 197 197 194 204 208 190 177 167 164 160 155 152 143 137 134 132 116 110 104 100 91 84 78 69 59 45 33
110 107 92 163 74 192 244 144 207 229 238 237 257 264 262 267 280 249 215 198 209 192 173 174 167 155 158 154 146 144 140 139 126 113 108 103 97 89 82 72 58 43 32 20
134 112 121 151 187 310 293 203 175 171 249 242 240 257 269 280 292 256 231 199 212 193 188 175 158 147 148 149 151 144 142 134 124 112 104 95 87 83 72 58 44 33 21 16
151 111 136 155 192 213 283 343 324 121 254 352 43 29 1 343 259 277 224 202 164 141 150 146 140 139 143 154 153 146 137 129 117 113 104 93 82 74 61 46 34 24 17 11
151 164 207 209 238 276 188 253 308 140 224 216 110 11 344 5 284 304 302 33 109 128 128 131 129 127 140 152 152 137 136 121 120 115 104 92 78 64 47 38 24 16 9 6
170 174 189 201 225 257 175 60 165 187 162 169 151 149 158 306 337 10 25 52 95 114 118 123 118 118 142 151 151 132 124 126 122 115 100 80 66 48 34 26 20 14 12 9
169 181 171 186 209 165 180 116 129 161 184 182 167 193 161 105 67 27 48 66 79 93 103 114 118 119 132 141 146 133 129 125 114 96 78 69 71 52 37 25 17 15 14 9
286 159 164 93 234 198 191 217 223 201 207 169 252 194 197 140 146 125 102 88 92 107 114 127 124 121 127 136 136 125 123 110 109 117 113 87 67 53 38 32 18 21 11 3
190 129 171 267 277 276 279 99 352 333 170 219 272 269 253 153 173 153 139 134 131 130 135 139 136 135 136 139 131 129 134 145 148 130 114 94 71 45 36 27 29 8 3 356
187 178 171 213 188 133 85 56 10 341 276 234 226 246 235 184 179 168 158 151 149 145 146 140 141 141 145 141 138 146 153 148 143 137 132 111 82 46 28 13 5 20 359 359